{"data":{"norad_id":60125,"intl_designator":"2024-118N","name":"STARLINK-11160 [DTC]","alt_names":[],"object_type":"PAYLOAD","status":"ACTIVE","operator":null,"country":"US","launch_date":"2024-06-24","launch_site_code":"AFWTR","launch_vehicle":null,"mission":null,"orbit_class":"UNKNOWN","rcs_meters":null,"size_class":null,"mass_kg":null,"dimensions":null,"purposes":["comms"],"wikipedia_slug":null,"has_3d_model":false,"image_url":null,"decayed_at":null,"tle_current":{"epoch":"2026-09-21T15:41:48.019200Z","epoch_age_seconds":81857,"freshness":"FRESH","line1":"1 60125U 24118N   26264.65402800  .00000228  00000+0  67450-5 0  9993","line2":"2 60125  53.1608 335.0856 0001230  67.6274 292.4874 15.69698801128771","mean_motion":15.69698801,"eccentricity":0.000123,"inclination_deg":53.1608,"raan_deg":335.0856,"arg_perigee_deg":67.6274,"mean_anomaly_deg":292.4874,"bstar":6.745e-6,"rev_number":12877,"period_min":91.73734471114,"perigee_km":358.93003667843,"apogee_km":360.5875590447,"semimajor_km":6737.8957978616,"source":"CELESTRAK","updated_at":"2026-09-22T09:00:49.157190Z"}}}